Location: Artiguedieu
(43.5000°N, 0.5454°E)
Time: 01:17:41
(UTC+00:00)

Transit 2A Rocket - Pass Details

Date: 05 August 2021
Orbit: 586 x 916 km, 66.7° (Epoch: 16 September)

Event Time Altitude Azimuth Distance (km) Brightness Sun altitude
Rises 23:03:48 0° 315° (NW) 3,348 9.2 -28.2°
Reaches altitude 10° 23:06:41 10° 301° (WNW) 2,464 8.2 -28.4°
Enters shadow 23:10:53 22° 254° (WSW) 1,806 6.8 -28.6°
Maximum altitude 23:10:58 22° 252° (WSW) 1,807 - -28.6°
Drops below altitude 10° 23:15:26 10° 204° (SSW) 2,567 - -28.8°
Sets 23:18:31 0° 190° (S) 3,525 - -28.9°
